User: anonymous   Login
Location: Bakov nad Jizerou
(50.4784°N, 14.9394°E)
Time: 11:34:07
(UTC+00:00)
Language:

Cosmos 1331 Rocket - Orbit

View from above orbital plane
View from above orbital plane
View from above satellite
View from above satellite

Ground track
Ground track

The orbit data is extracted from the following two-line orbital elements,

1 13028U 82001B   21265.66955759  .00000075  00000-0  33197-4 0  9992
2 13028  74.0427  37.4617 0018709  93.3544 266.9750 14.38445795 80947
Epoch (UTC): 22 September 2021 16:04:09
Eccentricity: 0.0018709
inclination: 74.0427°
perigee height: 750 km
apogee height: 777 km
right ascension of ascending node: 37.4617°
argument of perigee: 93.3544°
revolutions per day: 14.38445795
mean anomaly at epoch: 266.9750°
orbit number at epoch: 8094

The dashed part of the orbit path shows where the satellite is in the earth's shadow,  

DLR